Time,TemperatureF,DewpointF,PressureIn,WindDirection,WindDirectionDegrees,WindSpeedMPH,WindSpeedGustMPH,Humidity,HourlyPrecipIn,Conditions,Clouds,dailyrainin,SolarRadiationWatts/m^2,SoftwareType,DateUTC
2013-09-05 00:00:00,60.7,55.5,29.95,WNW,293,0.0,0.0,83,0.00,,,0.00,0008,Weather View 32 v70,2013-09-05 04:00:00,
2013-09-05 00:05:00,60.7,55.5,29.94,WNW,293,0.0,0.0,83,0.00,,,0.00,0000,Weather View 32 v70,2013-09-05 04:05:00,
2013-09-05 00:10:00,60.7,55.5,29.94,WNW,293,0.0,0.0,83,0.00,,,0.00,0008,Weather View 32 v70,2013-09-05 04:10:00,
2013-09-05 00:15:00,60.6,55.4,29.94,WNW,293,0.0,0.0,83,0.00,,,0.00,0000,Weather View 32 v70,2013-09-05 04:15:00,
2013-09-05 00:19:00,60.6,55.4,29.94,WNW,293,0.0,0.0,83,0.00,,,0.00,0000,Weather View 32 v70,2013-09-05 04:19:00,
2013-09-05 00:25:00,60.6,55.4,29.94,WNW,293,0.0,0.0,83,0.00,,,0.00,0000,Weather View 32 v70,2013-09-05 04:25:00,
2013-09-05 00:30:00,60.6,55.4,29.94,WNW,293,0.0,0.0,83,0.00,,,0.00,0000,Weather View 32 v70,2013-09-05 04:30:00,
2013-09-05 00:35:00,60.6,55.4,29.94,WNW,293,0.0,0.0,83,0.00,,,0.00,0000,Weather View 32 v70,2013-09-05 04:35:00,
2013-09-05 00:40:00,60.5,55.3,29.94,WNW,293,0.0,0.0,83,0.00,,,0.00,0008,Weather View 32 v70,2013-09-05 04:40:00,
2013-09-05 00:50:00,60.4,55.5,29.93,WNW,293,0.0,0.0,84,0.00,,,0.00,0016,Weather View 32 v70,2013-09-05 04:50:00,
2013-09-05 00:55:00,60.6,55.7,29.93,WNW,293,0.0,0.0,84,0.00,,,0.00,0000,Weather View 32 v70,2013-09-05 04:55:00,
2013-09-05 01:00:00,60.7,56.2,29.93,WNW,293,0.0,0.0,85,0.00,,,0.00,0000,Weather View 32 v70,2013-09-05 05:00:00,
2013-09-05 01:10:00,61.1,56.5,29.93,WNW,293,0.0,0.0,85,0.00,,,0.00,0008,Weather View 32 v70,2013-09-05 05:10:00,
2013-09-05 01:15:00,61.1,56.5,29.93,WNW,293,0.0,0.0,85,0.00,,,0.00,0000,Weather View 32 v70,2013-09-05 05:15:00,
2013-09-05 01:20:00,60.9,56.4,29.93,WNW,293,0.0,0.0,85,0.00,,,0.00,0000,Weather View 32 v70,2013-09-05 05:20:00,
2013-09-05 01:25:00,60.9,56.4,29.93,WNW,293,0.0,0.0,85,0.00,,,0.00,0000,Weather View 32 v70,2013-09-05 05:25:00,
2013-09-05 01:30:00,60.9,56.4,29.92,WNW,293,0.0,0.0,85,0.00,,,0.00,0008,Weather View 32 v70,2013-09-05 05:30:00,
2013-09-05 01:40:00,60.8,56.3,29.93,WNW,293,0.0,0.0,85,0.00,,,0.00,0008,Weather View 32 v70,2013-09-05 05:40:00,
2013-09-05 01:45:00,60.8,56.3,29.92,WNW,293,0.0,0.0,85,0.00,,,0.00,0008,Weather View 32 v70,2013-09-05 05:45:00,
2013-09-05 01:55:00,61.3,56.7,29.92,NW,315,0.0,0.0,85,0.00,,,0.00,0000,Weather View 32 v70,2013-09-05 05:55:00,
2013-09-05 02:00:00,61.7,57.2,29.92,NW,315,0.0,0.0,85,0.00,,,0.00,0000,Weather View 32 v70,2013-09-05 06:00:00,
2013-09-05 02:05:00,61.6,57.1,29.92,NW,315,0.0,0.0,85,0.00,,,0.00,0000,Weather View 32 v70,2013-09-05 06:05:00,
2013-09-05 02:10:00,61.3,56.7,29.92,NW,315,0.0,0.0,85,0.00,,,0.00,0000,Weather View 32 v70,2013-09-05 06:10:00,
2013-09-05 02:20:00,61.2,56.6,29.91,NW,315,0.0,0.0,85,0.00,,,0.00,0000,Weather View 32 v70,2013-09-05 06:20:00,
2013-09-05 02:25:00,61.1,56.5,29.91,NW,315,0.0,0.0,85,0.00,,,0.00,0000,Weather View 32 v70,2013-09-05 06:25:00,
2013-09-05 02:30:00,60.8,56.3,29.91,NW,315,0.0,0.0,85,0.00,,,0.00,0000,Weather View 32 v70,2013-09-05 06:30:00,
2013-09-05 02:40:00,60.9,56.4,29.91,NW,315,0.0,0.0,85,0.00,,,0.00,0000,Weather View 32 v70,2013-09-05 06:40:00,
2013-09-05 02:45:00,60.9,56.4,29.91,NW,315,0.0,0.0,85,0.00,,,0.00,0000,Weather View 32 v70,2013-09-05 06:45:00,
2013-09-05 02:50:00,61.2,56.6,29.91,NW,315,0.0,0.0,85,0.00,,,0.00,0000,Weather View 32 v70,2013-09-05 06:50:00,
2013-09-05 03:00:00,61.4,57.2,29.91,West,270,0.0,0.0,86,0.00,,,0.00,0000,Weather View 32 v70,2013-09-05 07:00:00,
2013-09-05 03:10:00,61.5,57.3,29.91,WNW,293,0.0,0.0,86,0.00,,,0.00,0000,Weather View 32 v70,2013-09-05 07:10:00,
2013-09-05 03:15:00,61.5,57.3,29.91,WNW,293,0.0,0.0,86,0.00,,,0.00,0000,Weather View 32 v70,2013-09-05 07:15:00,
2013-09-05 03:20:00,61.5,57.3,29.91,WNW,293,0.0,0.0,86,0.00,,,0.00,0000,Weather View 32 v70,2013-09-05 07:20:00,
2013-09-05 03:25:00,61.4,57.2,29.91,WNW,293,0.0,0.0,86,0.00,,,0.00,0000,Weather View 32 v70,2013-09-05 07:25:00,
2013-09-05 03:35:00,61.3,57.0,29.91,NW,315,0.0,0.0,86,0.00,,,0.00,0008,Weather View 32 v70,2013-09-05 07:35:00,
2013-09-05 03:40:00,61.5,57.3,29.91,NW,315,0.0,0.0,86,0.00,,,0.00,0000,Weather View 32 v70,2013-09-05 07:40:00,
2013-09-05 03:45:00,61.2,56.6,29.91,NW,315,0.0,0.0,85,0.00,,,0.00,0000,Weather View 32 v70,2013-09-05 07:45:00,
2013-09-05 03:50:00,60.6,56.1,29.91,NW,315,0.0,0.0,85,0.00,,,0.00,0000,Weather View 32 v70,2013-09-05 07:50:00,
2013-09-05 04:00:00,60.4,55.8,29.91,NW,315,0.0,0.0,85,0.00,,,0.00,0000,Weather View 32 v70,2013-09-05 08:00:00,
2013-09-05 04:05:00,60.5,55.9,29.90,NW,315,0.0,0.0,85,0.00,,,0.00,0000,Weather View 32 v70,2013-09-05 08:05:00,
2013-09-05 04:10:00,60.6,56.1,29.90,NW,315,0.0,0.0,85,0.00,,,0.00,0000,Weather View 32 v70,2013-09-05 08:10:00,
2013-09-05 04:15:00,60.7,56.5,29.90,NW,315,0.0,0.0,86,0.00,,,0.00,0000,Weather View 32 v70,2013-09-05 08:15:00,
2013-09-05 04:20:00,61.1,56.8,29.90,WNW,293,0.0,0.0,86,0.00,,,0.00,0000,Weather View 32 v70,2013-09-05 08:20:00,
2013-09-05 04:30:00,61.5,57.6,29.90,NW,315,0.0,0.0,87,0.00,,,0.00,0000,Weather View 32 v70,2013-09-05 08:30:00,
2013-09-05 04:40:00,60.7,56.5,29.90,NW,315,0.0,0.0,86,0.00,,,0.00,0000,Weather View 32 v70,2013-09-05 08:40:00,
2013-09-05 04:45:00,60.3,55.7,29.90,NW,315,0.0,0.0,85,0.00,,,0.00,0000,Weather View 32 v70,2013-09-05 08:45:00,
2013-09-05 04:55:00,59.9,55.4,29.90,NW,315,0.0,0.0,85,0.00,,,0.00,0000,Weather View 32 v70,2013-09-05 08:55:00,
2013-09-05 05:00:00,59.8,55.3,29.90,NW,315,0.0,0.0,85,0.00,,,0.00,0000,Weather View 32 v70,2013-09-05 09:00:00,
2013-09-05 05:05:00,59.8,55.3,29.90,NW,315,0.0,0.0,85,0.00,,,0.00,0000,Weather View 32 v70,2013-09-05 09:05:00,
2013-09-05 05:15:00,60.0,55.5,29.90,NW,315,0.0,0.0,85,0.00,,,0.00,0000,Weather View 32 v70,2013-09-05 09:15:00,
2013-09-05 05:20:00,60.2,55.6,29.90,NW,315,0.0,0.0,85,0.00,,,0.00,0008,Weather View 32 v70,2013-09-05 09:20:00,
2013-09-05 05:25:00,60.2,55.9,29.90,NW,315,0.0,0.0,86,0.00,,,0.00,0000,Weather View 32 v70,2013-09-05 09:25:00,
2013-09-05 05:30:00,60.0,55.8,29.91,NW,315,0.0,0.0,86,0.00,,,0.00,0000,Weather View 32 v70,2013-09-05 09:30:00,
2013-09-05 05:40:00,59.9,55.7,29.91,NW,315,0.0,0.0,86,0.00,,,0.00,0008,Weather View 32 v70,2013-09-05 09:40:00,
2013-09-05 05:45:00,59.9,55.7,29.91,NW,315,0.0,0.0,86,0.00,,,0.00,0016,Weather View 32 v70,2013-09-05 09:45:00,
2013-09-05 05:50:00,60.2,55.9,29.91,NW,315,0.0,0.0,86,0.00,,,0.00,0000,Weather View 32 v70,2013-09-05 09:50:00,
2013-09-05 05:55:00,60.2,55.9,29.91,NW,315,0.0,0.0,86,0.00,,,0.00,0016,Weather View 32 v70,2013-09-05 09:55:00,
2013-09-05 06:00:00,60.4,56.2,29.91,NW,315,0.0,0.0,86,0.00,,,0.00,0000,Weather View 32 v70,2013-09-05 10:00:00,
2013-09-05 06:10:00,60.4,56.5,29.91,NW,315,0.0,0.0,87,0.00,,,0.00,0000,Weather View 32 v70,2013-09-05 10:10:00,
2013-09-05 06:20:00,59.9,55.7,29.91,NW,315,0.0,0.0,86,0.00,,,0.00,0000,Weather View 32 v70,2013-09-05 10:20:00,
2013-09-05 06:25:00,59.7,55.5,29.91,NW,315,0.0,0.0,86,0.00,,,0.00,0008,Weather View 32 v70,2013-09-05 10:25:00,
2013-09-05 06:35:00,59.5,55.3,29.91,WNW,293,0.0,0.0,86,0.00,,,0.00,0008,Weather View 32 v70,2013-09-05 10:35:00,
2013-09-05 06:40:00,59.4,55.2,29.91,WNW,293,0.0,0.0,86,0.00,,,0.00,0016,Weather View 32 v70,2013-09-05 10:40:00,
2013-09-05 06:45:00,59.4,55.2,29.91,WNW,293,0.0,0.0,86,0.00,,,0.00,0024,Weather View 32 v70,2013-09-05 10:45:00,
2013-09-05 06:50:00,59.6,55.4,29.91,WNW,293,0.0,0.0,86,0.00,,,0.00,0032,Weather View 32 v70,2013-09-05 10:50:00,
2013-09-05 07:00:00,60.3,56.1,29.92,WNW,293,0.0,0.0,86,0.00,,,0.00,0080,Weather View 32 v70,2013-09-05 11:00:00,
2013-09-05 07:05:00,60.5,56.3,29.92,NW,315,0.0,3.0,86,0.00,,,0.00,0104,Weather View 32 v70,2013-09-05 11:05:00,
2013-09-05 07:10:00,60.9,57.0,29.92,NW,315,0.0,3.0,87,0.00,,,0.00,0120,Weather View 32 v70,2013-09-05 11:10:00,
2013-09-05 07:15:00,60.9,56.7,29.92,NW,315,0.0,3.0,86,0.00,,,0.00,0104,Weather View 32 v70,2013-09-05 11:15:00,
2013-09-05 07:20:00,60.9,56.7,29.92,WNW,293,0.0,3.0,86,0.00,,,0.00,0096,Weather View 32 v70,2013-09-05 11:20:00,
2013-09-05 07:25:00,61.3,57.4,29.92,WNW,293,0.0,3.0,87,0.00,,,0.00,0168,Weather View 32 v70,2013-09-05 11:25:00,
2013-09-05 07:30:00,61.4,57.2,29.92,WNW,293,0.0,3.0,86,0.00,,,0.00,0152,Weather View 32 v70,2013-09-05 11:30:00,
2013-09-05 07:40:00,61.7,57.8,29.92,WNW,293,0.0,3.0,87,0.00,,,0.00,0208,Weather View 32 v70,2013-09-05 11:40:00,
2013-09-05 07:45:00,61.6,57.7,29.92,WNW,293,0.0,3.0,87,0.00,,,0.00,0216,Weather View 32 v70,2013-09-05 11:45:00,
2013-09-05 07:55:00,61.8,57.9,29.92,NW,315,0.0,3.0,87,0.00,,,0.00,0248,Weather View 32 v70,2013-09-05 11:55:00,
2013-09-05 08:00:00,62.1,58.1,29.92,WNW,293,0.0,3.0,87,0.00,,,0.00,0256,Weather View 32 v70,2013-09-05 12:00:00,
2013-09-05 08:10:00,62.4,58.1,29.92,NW,315,0.0,1.0,86,0.00,,,0.00,0288,Weather View 32 v70,2013-09-05 12:10:00,
2013-09-05 08:15:00,62.9,58.6,29.92,NW,315,0.0,1.0,86,0.00,,,0.00,0296,Weather View 32 v70,2013-09-05 12:15:00,
2013-09-05 08:20:00,63.0,58.7,29.92,NW,315,0.0,1.0,86,0.00,,,0.00,0328,Weather View 32 v70,2013-09-05 12:20:00,
2013-09-05 08:25:00,63.3,59.0,29.93,NW,315,0.0,1.0,86,0.00,,,0.00,0432,Weather View 32 v70,2013-09-05 12:25:00,
2013-09-05 08:35:00,64.1,59.5,29.92,NNW,338,0.0,0.0,85,0.00,,,0.00,0200,Weather View 32 v70,2013-09-05 12:35:00,
2013-09-05 08:40:00,64.4,59.8,29.93,NW,315,0.0,0.0,85,0.00,,,0.00,0136,Weather View 32 v70,2013-09-05 12:40:00,
2013-09-05 08:45:00,64.7,60.0,29.93,WNW,293,0.0,0.0,85,0.00,,,0.00,0400,Weather View 32 v70,2013-09-05 12:45:00,
2013-09-05 08:55:00,66.0,61.0,29.93,NNW,338,0.0,0.0,84,0.00,,,0.00,0384,Weather View 32 v70,2013-09-05 12:55:00,
2013-09-05 09:00:00,66.8,61.4,29.93,NNW,338,0.0,0.0,83,0.00,,,0.00,0296,Weather View 32 v70,2013-09-05 13:00:00,
2013-09-05 09:10:00,67.1,61.1,29.94,NW,315,0.0,0.0,81,0.00,,,0.00,0176,Weather View 32 v70,2013-09-05 13:10:00,
2013-09-05 09:15:00,67.0,60.6,29.94,NW,315,0.0,0.0,80,0.00,,,0.00,0136,Weather View 32 v70,2013-09-05 13:15:00,
2013-09-05 09:24:00,67.0,60.6,29.94,NW,315,0.0,0.0,80,0.00,,,0.00,0216,Weather View 32 v70,2013-09-05 13:24:00,
2013-09-05 09:30:00,67.1,60.4,29.94,North,0,0.0,0.0,79,0.00,,,0.00,0200,Weather View 32 v70,2013-09-05 13:30:00,
2013-09-05 09:40:00,66.8,58.2,29.95,NNE,23,0.0,5.0,74,0.00,,,0.00,0136,Weather View 32 v70,2013-09-05 13:40:00,
2013-09-05 09:45:00,66.7,58.8,29.95,NNW,338,0.0,5.0,76,0.00,,,0.00,0160,Weather View 32 v70,2013-09-05 13:45:00,
2013-09-05 09:50:00,66.5,58.6,29.95,North,0,0.0,5.0,76,0.00,,,0.00,0168,Weather View 32 v70,2013-09-05 13:50:00,
2013-09-05 09:55:00,66.8,58.6,29.94,North,0,0.0,5.0,75,0.00,,,0.00,0448,Weather View 32 v70,2013-09-05 13:55:00,
2013-09-05 10:00:00,67.6,59.0,29.95,NNW,338,0.0,5.0,74,0.00,,,0.00,0408,Weather View 32 v70,2013-09-05 14:00:00,
2013-09-05 10:10:00,66.7,57.7,29.95,North,0,0.0,5.0,73,0.00,,,0.00,0144,Weather View 32 v70,2013-09-05 14:10:00,
2013-09-05 10:15:00,66.6,58.0,29.95,North,0,0.0,5.0,74,0.00,,,0.00,0168,Weather View 32 v70,2013-09-05 14:15:00,
2013-09-05 10:20:00,66.3,57.8,29.95,North,0,0.0,5.0,74,0.00,,,0.00,0160,Weather View 32 v70,2013-09-05 14:20:00,
2013-09-05 10:25:00,66.2,57.7,29.95,North,0,0.0,5.0,74,0.00,,,0.00,0192,Weather View 32 v70,2013-09-05 14:25:00,
2013-09-05 10:35:00,66.5,57.9,29.95,NNW,338,0.0,5.0,74,0.00,,,0.00,0112,Weather View 32 v70,2013-09-05 14:35:00,
2013-09-05 10:40:00,66.5,58.3,29.95,NW,315,0.0,5.0,75,0.00,,,0.00,0184,Weather View 32 v70,2013-09-05 14:40:00,
2013-09-05 10:50:00,66.8,59.0,29.95,North,0,0.0,5.0,76,0.00,,,0.00,0200,Weather View 32 v70,2013-09-05 14:50:00,
2013-09-05 11:00:00,67.4,59.1,29.94,North,0,0.0,5.0,75,0.00,,,0.00,0288,Weather View 32 v70,2013-09-05 15:00:00,
2013-09-05 11:10:00,68.3,59.2,29.94,North,0,0.0,5.0,73,0.00,,,0.00,0320,Weather View 32 v70,2013-09-05 15:10:00,
2013-09-05 11:15:00,68.6,59.6,29.94,NE,45,0.0,5.0,73,0.00,,,0.00,0344,Weather View 32 v70,2013-09-05 15:15:00,
2013-09-05 11:20:00,68.8,60.2,29.95,North,0,0.0,5.0,74,0.00,,,0.00,0352,Weather View 32 v70,2013-09-05 15:20:00,
2013-09-05 11:25:00,69.2,59.3,29.95,North,0,0.0,5.0,71,0.00,,,0.00,0376,Weather View 32 v70,2013-09-05 15:25:00,
2013-09-05 11:30:00,69.2,58.1,29.94,NW,315,0.0,5.0,68,0.00,,,0.00,0184,Weather View 32 v70,2013-09-05 15:30:00,
2013-09-05 11:35:00,68.9,59.1,29.94,NNE,23,0.0,5.0,71,0.00,,,0.00,0176,Weather View 32 v70,2013-09-05 15:35:00,
2013-09-05 11:40:00,68.8,59.4,29.94,North,0,0.0,5.0,72,0.00,,,0.00,0384,Weather View 32 v70,2013-09-05 15:40:00,
2013-09-05 11:50:00,69.5,59.2,29.94,NW,315,0.0,5.0,70,0.00,,,0.00,0752,Weather View 32 v70,2013-09-05 15:50:00,
2013-09-05 11:55:00,70.3,60.0,29.94,NNW,338,0.0,5.0,70,0.00,,,0.00,0680,Weather View 32 v70,2013-09-05 15:55:00,
2013-09-05 12:05:00,71.5,58.7,29.94,North,0,0.0,5.0,64,0.00,,,0.00,0840,Weather View 32 v70,2013-09-05 16:05:00,
2013-09-05 12:10:00,71.7,58.9,29.94,WNW,293,0.0,3.0,64,0.00,,,0.00,0528,Weather View 32 v70,2013-09-05 16:10:00,
2013-09-05 12:15:00,71.9,59.0,29.95,NNE,23,0.0,4.0,64,0.00,,,0.00,0656,Weather View 32 v70,2013-09-05 16:15:00,
2013-09-05 12:25:00,71.9,58.1,29.94,NNE,23,0.0,4.0,62,0.00,,,0.00,0456,Weather View 32 v70,2013-09-05 16:25:00,
2013-09-05 12:35:00,71.7,58.0,29.95,NNW,338,0.0,4.0,62,0.00,,,0.00,0584,Weather View 32 v70,2013-09-05 16:35:00,
2013-09-05 12:40:00,71.5,58.2,29.95,NNW,338,0.0,4.0,63,0.00,,,0.00,0400,Weather View 32 v70,2013-09-05 16:40:00,
2013-09-05 12:50:00,71.7,58.4,29.95,North,0,0.0,4.0,63,0.00,,,0.00,0712,Weather View 32 v70,2013-09-05 16:50:00,
2013-09-05 12:55:00,72.3,59.0,29.95,NNW,338,0.0,4.0,63,0.00,,,0.00,0536,Weather View 32 v70,2013-09-05 16:55:00,
2013-09-05 13:05:00,73.1,58.8,29.95,NNW,338,0.0,4.0,61,0.00,,,0.00,0744,Weather View 32 v70,2013-09-05 17:05:00,
2013-09-05 13:10:00,73.7,58.9,29.95,North,0,0.0,4.0,60,0.00,,,0.00,0320,Weather View 32 v70,2013-09-05 17:10:00,
2013-09-05 13:15:00,73.8,57.5,29.94,West,270,3.0,3.0,57,0.00,,,0.00,0752,Weather View 32 v70,2013-09-05 17:15:00,
2013-09-05 13:20:00,73.3,55.6,29.94,ESE,113,0.0,3.0,54,0.00,,,0.00,0480,Weather View 32 v70,2013-09-05 17:20:00,
2013-09-05 13:27:00,73.3,58.5,29.95,NE,45,0.0,3.0,60,0.00,,,0.00,0480,Weather View 32 v70,2013-09-05 17:27:00,
2013-09-05 13:35:00,73.9,57.6,29.95,NNE,23,0.0,3.0,57,0.00,,,0.00,0896,Weather View 32 v70,2013-09-05 17:35:00,
2013-09-05 13:40:00,73.3,59.5,29.96,NNE,23,0.0,4.0,62,0.00,,,0.00,0144,Weather View 32 v70,2013-09-05 17:40:00,
2013-09-05 13:50:00,72.1,58.7,29.96,NNW,338,0.0,4.0,63,0.00,,,0.00,0888,Weather View 32 v70,2013-09-05 17:50:00,
2013-09-05 13:55:00,73.4,58.6,29.96,NNW,338,0.0,5.0,60,0.00,,,0.00,0944,Weather View 32 v70,2013-09-05 17:55:00,
2013-09-05 14:00:00,74.0,57.2,29.96,WNW,293,2.0,5.0,56,0.00,,,0.00,0944,Weather View 32 v70,2013-09-05 18:00:00,
2013-09-05 14:05:00,74.3,57.6,29.96,North,0,0.0,5.0,56,0.00,,,0.00,0896,Weather View 32 v70,2013-09-05 18:05:00,
2013-09-05 14:10:00,74.4,57.2,29.96,NE,45,0.0,5.0,55,0.00,,,0.00,0544,Weather View 32 v70,2013-09-05 18:10:00,
2013-09-05 14:15:00,73.9,56.1,29.96,NE,45,1.0,5.0,54,0.00,,,0.00,0448,Weather View 32 v70,2013-09-05 18:15:00,
2013-09-05 14:25:00,72.8,54.6,29.96,North,0,0.0,5.0,53,0.00,,,0.00,0768,Weather View 32 v70,2013-09-05 18:25:00,
2013-09-05 14:30:00,73.1,56.4,29.96,NNE,23,0.0,5.0,56,0.00,,,0.00,0720,Weather View 32 v70,2013-09-05 18:30:00,
2013-09-05 14:35:00,73.2,57.0,29.96,NNW,338,0.0,6.0,57,0.00,,,0.00,0424,Weather View 32 v70,2013-09-05 18:35:00,
2013-09-05 14:45:00,73.0,56.3,29.96,NNE,23,0.0,6.0,56,0.00,,,0.00,0776,Weather View 32 v70,2013-09-05 18:45:00,
2013-09-05 14:50:00,73.5,56.3,29.96,NNE,23,0.0,6.0,55,0.00,,,0.00,0504,Weather View 32 v70,2013-09-05 18:50:00,
2013-09-05 14:55:00,73.3,56.1,29.96,NNW,338,0.0,6.0,55,0.00,,,0.00,0704,Weather View 32 v70,2013-09-05 18:55:00,
2013-09-05 15:00:00,72.8,56.1,29.96,North,0,0.0,6.0,56,0.00,,,0.00,0448,Weather View 32 v70,2013-09-05 19:00:00,
2013-09-05 15:10:00,72.0,56.3,29.96,NNW,338,0.0,6.0,58,0.00,,,0.00,0200,Weather View 32 v70,2013-09-05 19:10:00,
2013-09-05 15:15:00,71.3,56.2,29.96,North,0,0.0,6.0,59,0.00,,,0.00,0200,Weather View 32 v70,2013-09-05 19:15:00,
2013-09-05 15:20:00,70.6,56.5,29.96,NNW,338,0.0,6.0,61,0.00,,,0.00,0160,Weather View 32 v70,2013-09-05 19:20:00,
2013-09-05 15:28:00,70.1,55.9,29.96,NE,45,0.0,6.0,61,0.00,,,0.00,0136,Weather View 32 v70,2013-09-05 19:28:00,
2013-09-05 15:35:00,69.2,56.4,29.96,East,90,0.0,6.0,64,0.00,,,0.00,0032,Weather View 32 v70,2013-09-05 19:35:00,
2013-09-05 15:40:00,68.7,56.0,29.97,NNW,338,0.0,6.0,64,0.00,,,0.00,0032,Weather View 32 v70,2013-09-05 19:40:00,
2013-09-05 15:50:00,67.8,55.6,29.97,NW,315,0.0,6.0,65,0.00,,,0.00,0040,Weather View 32 v70,2013-09-05 19:50:00,
2013-09-05 15:55:00,67.8,56.8,29.97,NNW,338,0.0,6.0,68,0.00,,,0.00,0064,Weather View 32 v70,2013-09-05 19:55:00,
2013-09-05 16:00:00,67.6,56.6,29.98,NNW,338,0.0,4.0,68,0.00,,,0.00,0096,Weather View 32 v70,2013-09-05 20:00:00,
2013-09-05 16:05:00,67.4,56.8,29.98,North,0,0.0,4.0,69,0.00,,,0.00,0152,Weather View 32 v70,2013-09-05 20:05:00,
2013-09-05 16:10:00,67.4,57.2,29.97,North,0,0.0,4.0,70,0.00,,,0.00,0184,Weather View 32 v70,2013-09-05 20:10:00,
2013-09-05 16:20:00,68.0,57.4,29.98,North,0,0.0,4.0,69,0.00,,,0.00,0448,Weather View 32 v70,2013-09-05 20:20:00,
2013-09-05 16:25:00,68.6,57.6,29.98,NNW,338,0.0,4.0,68,0.00,,,0.00,0224,Weather View 32 v70,2013-09-05 20:25:00,
2013-09-05 16:30:00,68.7,56.0,29.98,North,0,0.0,2.0,64,0.00,,,0.00,0240,Weather View 32 v70,2013-09-05 20:30:00,
2013-09-05 16:35:00,68.7,55.1,29.98,NNE,23,0.0,2.0,62,0.00,,,0.00,0240,Weather View 32 v70,2013-09-05 20:35:00,
2013-09-05 16:40:00,68.8,56.5,29.99,North,0,0.0,2.0,65,0.00,,,0.00,0232,Weather View 32 v70,2013-09-05 20:40:00,
2013-09-05 16:45:00,68.6,55.5,29.99,North,0,0.0,2.0,63,0.00,,,0.00,0176,Weather View 32 v70,2013-09-05 20:45:00,
2013-09-05 16:50:00,68.4,54.8,29.99,NNW,338,0.0,2.0,62,0.00,,,0.00,0136,Weather View 32 v70,2013-09-05 20:50:00,
2013-09-05 16:55:00,68.1,55.9,29.99,NNE,23,0.0,2.0,65,0.00,,,0.00,0088,Weather View 32 v70,2013-09-05 20:55:00,
2013-09-05 17:00:00,67.8,56.0,29.99,NNE,23,0.0,2.0,66,0.00,,,0.00,0064,Weather View 32 v70,2013-09-05 21:00:00,
2013-09-05 17:05:00,67.4,55.1,30.00,NNE,23,0.0,2.0,65,0.00,,,0.00,0056,Weather View 32 v70,2013-09-05 21:05:00,
2013-09-05 17:10:00,67.2,55.9,30.00,North,0,0.0,2.0,67,0.00,,,0.00,0120,Weather View 32 v70,2013-09-05 21:10:00,
2013-09-05 17:20:00,67.0,54.8,30.00,North,0,0.0,2.0,65,0.00,,,0.00,0112,Weather View 32 v70,2013-09-05 21:20:00,
2013-09-05 17:25:00,67.0,55.7,30.00,North,0,0.0,2.0,67,0.00,,,0.00,0080,Weather View 32 v70,2013-09-05 21:25:00,
2013-09-05 17:30:00,66.9,56.0,30.00,North,0,0.0,2.0,68,0.00,,,0.00,0096,Weather View 32 v70,2013-09-05 21:30:00,
2013-09-05 17:40:00,66.8,56.3,30.01,North,0,0.0,2.0,69,0.00,,,0.00,0080,Weather View 32 v70,2013-09-05 21:40:00,
2013-09-05 17:45:00,66.6,55.6,30.01,North,0,0.0,2.0,68,0.00,,,0.00,0040,Weather View 32 v70,2013-09-05 21:45:00,
2013-09-05 17:50:00,66.5,55.1,30.01,North,0,0.0,0.0,67,0.00,,,0.00,0056,Weather View 32 v70,2013-09-05 21:50:00,
2013-09-05 17:55:00,66.2,54.1,30.01,North,0,0.0,0.0,65,0.00,,,0.00,0096,Weather View 32 v70,2013-09-05 21:55:00,
2013-09-05 18:00:00,66.1,54.8,30.01,North,0,0.0,0.0,67,0.00,,,0.00,0064,Weather View 32 v70,2013-09-05 22:00:00,
2013-09-05 18:05:00,65.8,53.6,30.01,North,0,0.0,0.0,65,0.00,,,0.00,0048,Weather View 32 v70,2013-09-05 22:05:00,
2013-09-05 18:15:00,65.3,53.2,30.02,North,0,0.0,0.0,65,0.00,,,0.00,0048,Weather View 32 v70,2013-09-05 22:15:00,
2013-09-05 18:20:00,65.0,52.9,30.02,North,0,0.0,0.0,65,0.00,,,0.00,0016,Weather View 32 v70,2013-09-05 22:20:00,
2013-09-05 18:25:00,64.8,52.7,30.02,North,0,0.0,0.0,65,0.00,,,0.00,0016,Weather View 32 v70,2013-09-05 22:25:00,
2013-09-05 18:30:00,64.5,52.9,30.02,North,0,0.0,0.0,66,0.00,,,0.00,0016,Weather View 32 v70,2013-09-05 22:30:00,
2013-09-05 18:40:00,64.0,52.4,30.03,North,0,0.0,0.0,66,0.00,,,0.00,0016,Weather View 32 v70,2013-09-05 22:40:00,
2013-09-05 18:50:00,63.5,52.7,30.03,North,0,0.0,0.0,68,0.00,,,0.00,0024,Weather View 32 v70,2013-09-05 22:50:00,
2013-09-05 18:55:00,63.3,53.3,30.03,North,0,0.0,0.0,70,0.00,,,0.00,0016,Weather View 32 v70,2013-09-05 22:55:00,
2013-09-05 19:00:00,63.3,53.3,30.03,North,0,0.0,0.0,70,0.00,,,0.00,0000,Weather View 32 v70,2013-09-05 23:00:00,
2013-09-05 19:10:00,63.0,53.8,30.03,North,0,0.0,0.0,72,0.00,,,0.00,0000,Weather View 32 v70,2013-09-05 23:10:00,
2013-09-05 19:15:00,62.6,53.4,30.03,North,0,0.0,0.0,72,0.00,,,0.00,0000,Weather View 32 v70,2013-09-05 23:15:00,
2013-09-05 19:25:00,62.6,54.2,30.03,North,0,0.0,0.0,74,0.00,,,0.00,0008,Weather View 32 v70,2013-09-05 23:25:00,
2013-09-05 19:30:00,62.5,54.5,30.04,North,0,0.0,0.0,75,0.00,,,0.00,0000,Weather View 32 v70,2013-09-05 23:30:00,
2013-09-05 19:40:00,62.5,54.8,30.04,North,0,0.0,0.0,76,0.00,,,0.00,0000,Weather View 32 v70,2013-09-05 23:40:00,
2013-09-05 19:45:00,62.5,54.8,30.05,North,0,0.0,0.0,76,0.00,,,0.00,0000,Weather View 32 v70,2013-09-05 23:45:00,
2013-09-05 19:50:00,62.6,55.3,30.05,North,0,0.0,0.0,77,0.00,,,0.00,0000,Weather View 32 v70,2013-09-05 23:50:00,
2013-09-05 19:55:00,62.6,55.6,30.05,North,0,0.0,0.0,78,0.00,,,0.00,0000,Weather View 32 v70,2013-09-05 23:55:00,
2013-09-05 20:00:00,62.6,55.6,30.06,North,0,0.0,0.0,78,0.00,,,0.00,0000,Weather View 32 v70,2013-09-06 00:00:00,
2013-09-05 20:10:00,62.3,55.3,30.06,North,0,0.0,0.0,78,0.00,,,0.00,0008,Weather View 32 v70,2013-09-06 00:10:00,
2013-09-05 20:20:00,62.0,54.3,30.06,North,0,0.0,0.0,76,0.00,,,0.00,0000,Weather View 32 v70,2013-09-06 00:20:00,
2013-09-05 20:25:00,62.0,54.3,30.07,North,0,0.0,0.0,76,0.00,,,0.00,0000,Weather View 32 v70,2013-09-06 00:25:00,
2013-09-05 20:30:00,61.8,54.2,30.07,North,0,0.0,0.0,76,0.00,,,0.00,0000,Weather View 32 v70,2013-09-06 00:30:00,
2013-09-05 20:40:00,61.8,54.5,30.07,North,0,0.0,0.0,77,0.00,,,0.00,0000,Weather View 32 v70,2013-09-06 00:40:00,
2013-09-05 20:45:00,61.7,54.4,30.08,North,0,0.0,0.0,77,0.00,,,0.00,0000,Weather View 32 v70,2013-09-06 00:45:00,
2013-09-05 20:50:00,61.7,54.4,30.08,North,0,0.0,0.0,77,0.00,,,0.00,0000,Weather View 32 v70,2013-09-06 00:50:00,
2013-09-05 20:55:00,61.6,54.0,30.08,North,0,0.0,0.0,76,0.00,,,0.00,0000,Weather View 32 v70,2013-09-06 00:55:00,
2013-09-05 21:00:00,61.5,53.8,30.08,North,0,0.0,0.0,76,0.00,,,0.00,0000,Weather View 32 v70,2013-09-06 01:00:00,
2013-09-05 21:10:00,61.2,53.2,30.08,NNW,338,0.0,0.0,75,0.00,,,0.00,0000,Weather View 32 v70,2013-09-06 01:10:00,
2013-09-05 21:20:00,60.8,52.8,30.09,NW,315,0.0,0.0,75,0.00,,,0.00,0008,Weather View 32 v70,2013-09-06 01:20:00,
2013-09-05 21:25:00,60.6,51.9,30.09,North,0,0.0,0.0,73,0.00,,,0.00,0000,Weather View 32 v70,2013-09-06 01:25:00,
2013-09-05 21:31:00,60.4,51.7,30.09,North,0,0.0,0.0,73,0.00,,,0.00,0000,Weather View 32 v70,2013-09-06 01:31:00,
2013-09-05 21:40:00,59.9,51.2,30.10,NNW,338,0.0,0.0,73,0.00,,,0.00,0000,Weather View 32 v70,2013-09-06 01:40:00,
2013-09-05 21:45:00,59.7,51.0,30.10,NNW,338,0.0,0.0,73,0.00,,,0.00,0000,Weather View 32 v70,2013-09-06 01:45:00,
2013-09-05 21:55:00,59.3,50.2,30.10,NNW,338,0.0,0.0,72,0.00,,,0.00,0000,Weather View 32 v70,2013-09-06 01:55:00,
2013-09-05 22:05:00,58.5,49.5,30.11,NNW,338,0.0,0.0,72,0.00,,,0.00,0000,Weather View 32 v70,2013-09-06 02:05:00,
2013-09-05 22:15:00,57.8,49.2,30.11,North,0,0.0,0.0,73,0.00,,,0.00,0000,Weather View 32 v70,2013-09-06 02:15:00,
2013-09-05 22:20:00,57.3,48.7,30.11,NNW,338,0.0,0.0,73,0.00,,,0.00,0000,Weather View 32 v70,2013-09-06 02:20:00,
2013-09-05 22:25:00,57.1,48.9,30.11,NNW,338,0.0,0.0,74,0.00,,,0.00,0008,Weather View 32 v70,2013-09-06 02:25:00,
2013-09-05 22:30:00,56.9,49.0,30.11,NNW,338,0.0,0.0,75,0.00,,,0.00,0008,Weather View 32 v70,2013-09-06 02:30:00,
2013-09-05 22:40:00,56.4,49.3,30.12,NNW,338,0.0,0.0,77,0.00,,,0.00,0000,Weather View 32 v70,2013-09-06 02:40:00,
2013-09-05 22:50:00,56.2,49.4,30.12,NNW,338,0.0,0.0,78,0.00,,,0.00,0000,Weather View 32 v70,2013-09-06 02:50:00,
2013-09-05 22:55:00,56.2,49.4,30.12,NNW,338,0.0,0.0,78,0.00,,,0.00,0000,Weather View 32 v70,2013-09-06 02:55:00,
2013-09-05 23:05:00,56.1,49.7,30.12,NNW,338,0.0,0.0,79,0.00,,,0.00,0000,Weather View 32 v70,2013-09-06 03:05:00,
2013-09-05 23:10:00,56.1,49.7,30.12,NNW,338,0.0,0.0,79,0.00,,,0.00,0000,Weather View 32 v70,2013-09-06 03:10:00,
2013-09-05 23:15:00,56.0,49.6,30.12,NNW,338,0.0,0.0,79,0.00,,,0.00,0000,Weather View 32 v70,2013-09-06 03:15:00,
2013-09-05 23:25:00,55.4,49.0,30.12,North,0,0.0,0.0,79,0.00,,,0.00,0000,Weather View 32 v70,2013-09-06 03:25:00,
2013-09-05 23:30:00,55.2,48.8,30.12,North,0,0.0,0.0,79,0.00,,,0.00,0000,Weather View 32 v70,2013-09-06 03:30:00,
2013-09-05 23:35:00,55.0,48.6,30.13,NNW,338,0.0,0.0,79,0.00,,,0.00,0000,Weather View 32 v70,2013-09-06 03:35:00,
2013-09-05 23:40:00,55.0,48.6,30.13,NNW,338,0.0,0.0,79,0.00,,,0.00,0008,Weather View 32 v70,2013-09-06 03:40:00,
2013-09-05 23:50:00,54.6,48.6,30.13,NNW,338,0.0,0.0,80,0.00,,,0.00,0000,Weather View 32 v70,2013-09-06 03:50:00,
2013-09-05 23:55:00,54.5,48.5,30.13,NNW,338,0.0,0.0,80,0.00,,,0.00,0000,Weather View 32 v70,2013-09-06 03:55:00,